Theta_e
308 314 316 312 310 309 308 311 312 314 314 310 312 318 314 309 311 316 303 304 308 306 307 309 316 318 319 323 324 329 333 335 337 337 336 334 333 330 330 336 338 337 337 337 338 340 338 337 337
313 317 313 306 308 306 306 309 312 309 306 304 310 311 309 308 305 303 303 306 305 305 305 306 307 312 314 316 316 322 322 329 333 334 336 337 336 333 330 330 336 337 337 338 338 338 338 336 335
315 315 312 306 306 307 309 309 309 307 302 306 310 304 305 305 302 301 304 304 303 303 303 303 306 308 309 311 310 312 314 318 325 328 332 334 336 336 334 332 334 333 336 337 338 339 337 336 332
314 308 304 309 308 306 307 304 302 304 303 301 304 304 300 300 300 303 303 303 303 302 302 302 302 302 306 306 306 303 307 310 312 316 328 331 333 335 337 336 334 333 333 337 339 337 336 335 334
306 301 306 307 309 306 302 301 300 303 301 301 302 304 301 300 303 303 302 302 302 302 302 301 301 301 300 301 300 300 300 300 302 304 309 319 331 333 334 336 335 334 333 332 333 336 335 335 332
305 301 303 304 304 304 301 296 299 300 298 299 303 304 301 301 303 302 302 302 301 301 301 301 300 299 298 298 298 298 298 298 299 299 300 302 310 327 333 334 335 335 334 332 330 330 334 334 331
304 302 303 303 305 305 303 295 298 298 299 299 299 304 301 301 302 302 302 301 300 299 299 299 298 297 297 297 297 297 298 297 298 298 298 299 301 304 323 331 332 334 334 333 332 330 332 333 332
299 300 302 301 303 306 298 297 296 298 298 296 297 301 302 300 302 301 301 301 300 299 298 298 297 297 296 296 296 296 297 298 298 298 298 298 299 301 306 319 327 331 334 334 333 332 331 333 333
297 302 302 302 300 301 297 298 296 296 297 297 297 297 299 301 302 301 300 300 299 299 298 297 296 296 296 296 296 296 296 297 297 297 297 297 298 298 300 304 312 326 330 333 334 332 332 332 333
298 299 300 297 297 298 298 298 298 299 298 298 298 299 300 301 301 300 299 299 298 298 297 296 296 295 295 295 295 295 295 296 296 296 296 296 296 297 297 299 303 311 326 329 333 334 333 332 333
298 298 298 298 298 299 299 299 298 299 299 297 298 298 299 300 300 299 299 299 298 298 297 296 296 295 295 295 295 294 295 295 295 295 295 295 295 296 296 298 299 303 311 326 330 333 334 333 333
299 300 298 298 300 299 300 299 299 297 299 298 296 297 298 298 299 299 299 298 297 296 295 295 294 294 294 294 293 294 294 294 294 294 294 293 294 295 295 296 297 299 303 311 325 330 332 333 332
300 300 300 300 300 300 300 300 299 298 297 296 296 296 297 297 297 299 298 297 297 296 295 294 294 294 294 293 293 293 293 292 292 292 293 292 293 294 294 295 296 297 299 305 311 320 331 332 333
300 300 300 300 301 300 300 300 299 298 296 296 297 298 297 297 297 298 297 297 296 295 294 294 294 293 293 293 293 292 292 291 291 291 291 292 292 294 294 295 295 296 297 299 306 309 318 327 332
299 300 300 300 300 300 298 297 298 297 298 298 297 297 296 296 297 297 297 296 294 294 293 293 293 292 292 292 291 290 291 290 290 290 291 291 292 293 294 295 296 296 296 298 300 303 307 315 325
297 297 297 298 299 300 298 297 297 296 296 297 296 296 295 295 296 296 295 294 294 294 293 293 293 293 293 292 291 290 289 289 289 290 290 291 292 293 293 294 296 296 297 300 302 305 309 308 314
296 297 298 298 299 299 300 299 297 296 297 297 296 295 294 294 294 294 294 294 293 293 292 292 292 291 291 290 289 288 288 288 289 290 290 291 292 293 294 295 296 297 299 300 302 304 309 312 311
296 296 298 298 297 298 298 298 298 296 295 296 294 293 293 294 295 293 293 293 293 292 291 291 290 290 289 288 288 287 287 287 288 289 289 290 291 292 293 294 295 296 298 299 302 304 307 314 317
296 299 299 297 297 298 297 296 297 296 294 293 292 292 293 293 294 293 293 292 292 291 290 289 289 290 289 288 286 287 287 287 287 288 289 290 291 291 292 294 295 296 297 299 301 303 306 309 312
298 294 294 296 297 298 296 296 296 294 294 294 295 294 293 292 291 292 292 292 292 291 289 288 288 289 289 287 286 286 286 286 287 287 289 290 290 292 293 294 295 296 297 298 299 302 305 306 308
298 295 294 298 297 294 294 295 293 294 295 296 294 293 292 292 292 291 291 291 292 291 289 288 287 288 288 288 286 285 285 286 287 289 288 289 290 291 292 293 294 295 296 298 299 300 303 306 306
296 297 298 298 293 292 293 295 295 294 294 296 295 293 292 291 290 290 290 291 291 291 289 288 286 287 288 287 285 285 285 285 286 286 287 288 289 290 291 292 293 294 296 298 299 300 302 305 308
297 296 297 293 291 290 290 291 295 294 295 294 294 293 292 290 289 289 290 290 291 290 289 287 285 285 287 286 284 284 284 284 284 286 287 288 289 290 291 292 292 293 296 297 298 299 302 304 307
293 291 289 286 283 289 285 290 295 294 294 295 295 293 292 291 289 288 289 290 290 289 289 286 284 285 286 285 284 283 283 283 284 286 286 287 288 289 290 291 292 294 296 298 298 299 301 304 307
292 286 290 292 290 295 277 290 296 293 292 292 293 291 290 289 288 288 288 288 288 288 288 284 283 284 285 284 283 283 282 283 283 284 285 287 288 289 290 291 292 295 297 299 299 300 301 304 306
293 287 290 288 291 290 280 290 295 291 291 290 289 289 289 289 289 288 288 287 287 287 285 283 282 283 284 283 282 282 282 282 282 284 285 286 287 288 289 291 293 296 299 300 300 300 301 303 308
290 290 287 282 275 284 286 287 290 291 286 290 290 290 290 289 288 287 286 286 286 285 283 281 282 283 283 282 282 282 282 282 283 283 284 286 287 288 289 291 294 296 299 301 301 302 304 304 308
289 289 290 285 288 288 288 281 293 289 286 283 287 285 285 286 286 285 284 285 284 283 281 280 283 282 282 282 282 282 282 282 282 283 285 286 287 288 290 292 294 296 298 301 302 304 306 307 309
292 290 286 286 289 290 287 294 285 286 285 285 285 285 284 284 284 283 282 282 282 281 280 280 283 282 282 282 282 281 281 282 283 284 285 287 287 289 291 292 294 295 297 301 303 304 306 307 307
291 290 292 293 289 285 289 293 285 284 277 275 283 286 285 281 282 280 280 280 280 279 279 281 283 280 282 282 281 282 282 283 283 284 286 287 289 290 291 292 293 293 294 298 301 302 302 303 303
Wind_Speed
3 2 3 5 4 3 2 4 1 2 2 2 1 4 8 5 3 4 7 8 8 13 17 20 23 24 25 22 24 16 10 9 9 7 6 7 8 9 9 11 11 12 12 12 12 12 11 12 12
3 4 4 2 4 2 3 1 2 1 1 2 1 3 4 4 2 4 6 8 10 13 16 20 21 22 22 23 23 19 23 13 8 7 7 8 9 10 11 10 12 13 13 12 12 12 12 12 12
4 2 3 4 3 4 3 2 3 1 4 1 3 5 3 4 3 3 7 8 9 14 16 18 19 20 21 22 21 21 20 20 14 12 8 7 6 11 12 11 13 14 15 14 14 14 15 15 14
1 4 3 3 4 2 2 1 2 2 2 5 1 6 2 2 3 7 9 8 9 14 15 16 18 19 20 20 21 21 21 21 20 18 11 9 8 5 9 13 14 15 16 16 15 16 16 16 14
5 3 4 3 2 1 1 1 2 1 1 3 2 4 4 2 11 11 9 7 9 11 13 15 17 17 18 19 22 23 22 21 22 19 18 15 12 11 11 11 15 17 18 19 18 19 18 17 15
4 3 3 2 3 1 1 1 0 2 1 2 4 3 3 6 9 9 7 7 8 9 10 11 14 17 18 19 20 22 24 24 22 21 20 18 16 13 12 14 14 18 20 21 21 20 19 20 17
5 3 3 4 3 1 3 2 3 3 2 1 3 4 2 4 9 8 5 5 6 8 10 12 13 15 17 20 22 23 25 26 26 23 21 19 18 17 14 16 17 17 20 22 23 22 21 22 20
4 4 4 3 4 4 1 1 2 2 2 3 2 4 3 5 11 7 4 2 3 6 10 11 13 16 20 23 25 27 27 26 26 26 23 21 19 18 16 16 19 20 21 21 24 24 25 24 24
2 4 2 5 6 3 1 2 1 1 1 1 2 4 2 12 10 7 4 2 2 6 8 10 13 18 22 25 28 30 30 28 26 26 25 24 21 20 18 18 18 22 22 23 24 25 26 26 25
4 3 6 2 3 3 2 0 1 1 2 1 1 1 5 9 9 8 5 3 1 3 6 9 14 19 24 26 29 31 32 31 29 26 25 25 24 22 20 20 20 20 23 24 25 26 27 27 29
1 3 4 2 2 2 2 2 1 2 4 7 5 6 5 6 8 8 7 5 2 4 6 11 16 22 26 30 33 34 33 31 30 28 26 25 25 25 22 22 21 21 18 22 20 26 27 30 32
4 2 1 3 2 2 1 2 3 6 4 2 5 4 3 6 10 13 11 7 5 3 5 11 18 23 27 29 32 32 32 32 31 30 28 26 25 25 25 23 23 21 21 19 21 18 27 29 33
3 2 1 1 1 3 2 5 5 7 10 6 4 5 7 8 14 15 11 7 5 4 9 15 20 25 28 32 33 34 32 31 30 30 28 26 24 24 24 25 24 24 22 21 22 21 18 27 32
2 2 1 1 1 1 3 3 1 4 2 7 6 5 6 8 12 11 11 8 4 5 10 17 22 25 28 30 32 33 33 31 28 28 28 25 23 22 24 24 24 25 24 24 23 24 24 16 28
2 3 2 2 1 2 2 5 8 4 2 6 5 5 6 8 9 15 11 8 3 6 13 18 22 25 28 31 32 31 32 29 30 27 27 25 23 23 22 24 24 24 25 24 25 27 27 29 21
4 4 1 0 4 2 2 8 2 2 5 7 7 7 6 6 11 11 10 6 4 9 15 19 22 25 28 29 31 30 29 29 29 26 25 24 23 22 22 22 22 22 24 22 22 22 23 29 29
6 2 2 4 4 4 2 8 4 3 4 9 11 9 6 6 7 13 9 4 5 9 14 18 21 24 26 28 29 29 28 27 24 23 23 23 23 20 20 21 20 19 20 21 20 21 21 21 26
4 1 2 4 4 3 6 17 20 8 10 14 11 9 6 6 7 14 7 4 6 9 12 16 19 23 25 27 26 25 23 22 22 23 23 22 22 21 20 21 22 20 20 22 20 21 21 22 22
5 2 2 4 2 4 5 11 23 14 8 9 10 7 6 6 8 11 7 5 7 9 13 17 21 25 27 27 22 19 20 23 25 25 25 24 22 22 22 23 22 21 21 21 21 20 22 23 22
3 2 4 4 1 3 7 20 18 8 5 4 2 4 4 4 5 9 8 7 9 12 15 19 22 25 26 25 23 20 23 23 26 29 25 22 24 21 21 22 23 22 23 21 22 21 21 23 20
1 3 2 3 7 3 7 8 5 3 3 3 3 3 3 7 7 6 9 9 11 14 17 21 23 26 27 27 27 23 22 22 21 19 21 22 22 24 23 23 23 24 26 25 23 22 24 21 21
1 1 1 2 4 3 5 5 7 4 7 4 5 4 6 7 5 5 9 13 13 15 17 21 23 26 26 26 23 20 22 24 24 26 25 24 24 26 26 25 24 26 27 27 26 25 26 23 23
1 3 3 3 4 3 5 2 7 4 5 4 4 6 7 8 8 8 10 12 15 16 18 21 23 27 26 26 24 23 24 24 25 26 26 26 26 24 26 25 26 28 29 30 31 29 27 28 26
4 4 5 3 3 2 3 2 6 3 4 2 2 3 6 6 8 9 15 13 15 16 19 22 23 26 27 27 24 23 25 26 26 26 27 27 26 25 24 26 27 28 30 33 32 31 31 29 28
4 5 3 5 4 4 1 1 11 6 5 5 7 10 7 6 7 7 7 11 15 19 20 22 22 25 27 27 24 24 25 25 26 26 25 24 24 24 24 25 30 31 31 32 31 30 32 30 31
2 5 4 5 2 5 2 6 6 7 5 7 8 8 7 8 6 8 10 11 15 19 19 21 22 24 27 26 23 23 23 22 23 24 24 26 25 26 28 30 31 31 32 31 31 31 32 31 31
2 1 2 7 2 3 2 8 12 5 6 4 5 6 7 6 7 8 10 11 17 16 18 20 21 24 24 23 23 23 22 22 23 25 27 27 26 27 27 29 30 30 31 30 30 31 30 31 29
4 3 4 3 2 5 5 6 6 5 5 4 4 6 8 7 9 8 8 15 17 14 17 19 20 23 23 21 22 22 24 24 24 27 27 27 28 27 28 26 26 29 28 26 30 30 29 28 24
1 1 4 3 3 4 3 7 8 8 6 8 9 8 9 9 11 8 12 14 12 13 16 17 21 22 19 20 24 23 25 22 22 24 26 26 26 25 26 24 22 24 21 13 22 21 20 18 16
3 5 4 4 5 2 1 9 0 7 5 4 10 10 11 8 8 8 12 12 11 13 16 17 22 19 19 24 21 23 25 24 19 19 22 23 24 22 20 16 18 13 12 10 9 14 11 11 13
Wind_Direction
357 123 118 44 76 65 226 242 216 114 92 8 331 108 110 64 43 125 156 47 62 48 43 41 38 37 38 36 40 35 30 29 20 333 288 282 279 263 244 229 225 221 215 215 206 196 195 193 195
92 109 61 83 94 108 254 252 148 95 333 278 88 111 56 91 91 114 132 77 68 56 45 40 35 35 35 35 32 25 31 24 13 15 2 302 274 272 264 245 235 229 223 219 214 208 207 218 211
109 43 84 94 115 183 185 176 137 134 355 99 106 50 100 112 92 98 108 99 70 52 42 38 34 33 31 32 29 27 23 19 9 4 339 350 332 272 264 258 245 238 230 227 223 219 224 227 221
103 25 45 94 196 213 130 110 336 326 338 39 79 72 63 69 133 135 122 93 59 46 36 31 25 24 29 26 25 21 19 19 17 5 333 318 308 305 265 259 253 244 234 227 227 227 229 233 232
53 55 66 78 253 139 128 114 335 89 79 18 351 157 110 78 125 129 115 84 56 41 28 22 18 20 20 18 19 16 12 8 4 2 358 332 294 284 266 259 257 252 245 235 232 232 232 233 237
48 87 78 200 229 203 158 13 297 67 12 12 77 102 157 150 154 138 112 77 57 40 30 21 19 19 20 17 11 5 2 357 355 347 342 340 330 292 279 275 268 257 252 248 242 240 238 233 234
117 94 188 172 193 219 192 322 123 135 131 118 150 138 173 194 171 150 124 84 50 40 32 33 36 31 23 14 4 357 351 346 343 341 334 326 323 326 288 272 268 265 259 252 250 244 240 239 233
102 92 127 199 188 223 215 118 141 139 169 322 173 182 214 200 175 160 147 85 52 42 38 37 30 20 11 4 359 353 345 338 335 332 328 319 311 306 303 282 271 266 259 257 254 250 244 240 234
127 69 192 206 161 172 284 165 109 196 211 305 188 152 151 151 170 192 219 232 18 31 29 25 15 6 1 355 352 348 344 339 333 329 327 320 312 305 296 294 283 262 264 259 253 252 248 241 237
81 125 212 166 152 153 149 231 294 7 14 252 124 100 146 162 183 205 219 239 292 19 19 9 359 353 349 348 344 341 337 335 332 328 324 320 313 304 296 289 284 280 261 264 252 250 248 243 238
95 156 168 192 139 107 115 286 210 146 255 217 187 189 183 195 212 222 228 242 290 341 347 342 343 342 341 339 338 335 333 330 327 326 323 317 312 305 297 290 285 282 278 263 266 254 247 240 237
99 75 90 170 129 98 199 139 268 195 229 153 195 135 186 215 225 228 228 225 222 250 330 343 339 337 337 336 335 333 330 329 324 322 320 319 312 305 302 294 286 284 278 275 258 267 254 243 238
78 149 75 101 215 261 336 245 238 242 238 245 273 232 231 229 232 231 224 216 236 310 338 336 333 334 336 336 334 331 328 324 322 319 317 316 309 304 300 296 289 280 278 278 269 261 264 249 243
108 95 30 51 216 260 246 259 147 261 205 204 195 208 226 231 240 224 215 217 244 312 326 331 333 336 336 334 331 328 325 321 319 315 313 312 304 299 299 294 290 283 275 272 273 264 260 254 240
90 93 103 47 291 246 278 257 232 227 134 167 213 247 294 260 233 216 211 198 234 313 327 333 336 337 337 333 330 324 322 317 315 312 309 307 300 295 292 291 288 283 279 275 272 270 261 260 258
52 49 81 154 346 308 53 274 279 146 189 244 259 278 273 259 230 207 186 189 278 317 327 332 336 337 334 329 327 324 320 316 310 308 307 303 298 292 289 286 284 285 281 277 273 272 271 262 254
18 201 286 315 32 331 64 282 192 142 226 269 276 268 260 269 214 186 180 210 290 316 328 334 336 335 333 332 328 323 317 311 305 302 303 299 299 291 283 280 279 282 279 273 271 267 263 263 258
228 45 252 253 330 1 279 268 282 253 238 258 264 269 253 243 206 177 185 231 288 317 329 331 332 336 336 333 327 320 315 312 306 299 297 297 290 292 282 280 281 279 274 269 263 263 257 257 256
122 150 251 260 6 307 256 278 284 295 239 259 260 264 248 225 200 182 206 259 293 315 327 332 335 338 338 334 328 321 313 310 305 299 296 293 281 286 281 279 279 277 272 266 262 259 259 254 255
71 115 275 283 211 320 330 297 292 296 268 230 268 277 235 179 184 210 236 269 302 318 329 331 333 332 331 329 322 311 308 303 298 296 295 295 283 278 277 277 275 270 273 271 260 253 254 255 244
201 175 266 271 329 69 320 295 322 305 311 283 252 242 206 200 203 229 249 275 308 317 326 327 325 324 325 329 323 311 304 300 295 291 292 288 282 280 273 270 271 270 267 265 262 253 245 250 245
317 167 59 14 41 278 22 279 301 318 306 273 272 246 238 227 237 245 264 283 303 313 317 318 319 318 322 327 314 302 297 293 291 290 286 285 284 281 276 275 269 267 263 259 261 256 246 242 243
145 47 63 75 97 37 345 59 271 348 323 311 265 251 252 244 238 248 254 277 305 309 313 318 317 316 323 324 313 302 295 292 293 287 289 288 286 284 281 276 274 269 259 259 259 253 245 240 239
118 72 44 61 93 11 251 137 277 218 203 279 244 287 287 281 255 252 269 290 308 310 315 319 317 318 323 321 307 295 292 294 292 289 288 287 285 283 279 280 276 266 263 259 255 249 245 241 239
75 53 330 351 6 232 268 310 247 269 251 225 276 288 285 294 288 274 271 286 308 318 319 320 320 316 323 318 304 296 291 291 287 287 283 284 286 284 281 278 277 269 277 255 249 244 241 239 236
75 144 152 234 271 277 14 238 249 218 209 235 252 265 288 298 292 279 277 280 307 315 316 321 324 318 322 313 301 297 293 288 286 285 282 281 281 280 282 279 283 282 290 253 246 242 240 236 233
236 53 157 100 76 26 253 283 287 259 273 242 257 276 269 293 310 302 302 290 310 316 320 324 324 321 315 307 303 303 298 295 289 287 284 279 279 279 278 284 288 291 295 259 244 238 233 234 230
138 140 48 8 342 302 285 277 240 292 266 303 282 273 282 294 307 308 297 298 317 316 321 326 331 324 316 307 307 303 300 297 293 289 285 284 281 278 285 283 291 295 299 264 242 242 240 225 226
85 8 46 124 130 191 293 261 215 233 229 265 287 281 271 289 295 303 298 310 311 318 327 332 335 329 317 318 320 309 302 299 302 291 291 287 286 287 290 290 292 296 306 264 216 212 200 203 212
158 186 163 134 242 221 178 270 217 240 245 230 274 280 285 266 284 291 293 310 314 327 331 338 340 324 332 329 319 312 316 314 303 297 295 301 297 295 292 288 290 296 287 297 228 184 181 192 217